Regional Weather Roundup
Issued by NWS Midland/Odessa, TX

Skip options and go directly to product.
Home | Oldest Version | Next Version | Current Version | All | Text Only | Save Text | Print | Product List | Glossary On

Skip product version selection by date and time.   
033
ASUS44 KMAF 291101
RWRMAF
MIDLAND AREA WEATHER ROUNDUP
NATIONAL WEATHER SERVICE MIDLAND TX
600 AM CDT FRI APR 29 2016

...IN SOUTHWEST TEXAS AND SOUTHEAST NEW MEXICO...

CITY           SKY/WX    TMP DP  RH WIND       PRES   REMARKS
ALPINE         CLEAR     61  26  26 CALM      29.84R
ANDREWS        FAIR      69  64  84 SW13G22   29.68S
ARTESIA        CLEAR     57  27  30 NW9       29.74R
BIG SPRING     CLOUDY    70  64  80 S18       29.70R
CARLSBAD       CLEAR     64  28  25 W12       29.71R
DRYDEN           N/A     72  69  90 SE5       29.67R
FORT STOCKTON  CLEAR     62  58  86 CALM      29.73R
GUAD PASS      NOT AVBL
HOBBS          CLEAR     59  59 100 SW6       29.71R FOG
MARFA          CLEAR     55  24  30 W12       29.83S
MIDLAND AIRPK  CLOUDY    73  65  77 S17G24    29.67F
MIDLAND INTL   CLEAR     72  63  73 S21G30    29.67R
ODESSA         CLEAR     71  55  56 SW16      29.69R
PECOS          CLEAR     54  26  33 SE5       29.69R
PRESIDIO       FAIR      69  16  13 W7        29.72S
SEMINOLE       PTCLDY    67  62  83 SW9       29.68S
SNYDER           N/A     70  66  89 S12       29.68R FOG
WINK           CLEAR     59  48  67 SW7       29.68R
$$
...OTHER STATIONS IN TEXAS...

CITY           SKY/WX    TMP DP  RH WIND       PRES   REMARKS
ABILENE        PTCLDY    70  67  90 S16G24    29.67S FOG
AMARILLO       TSTM      53  52  96 E17G28    29.72R FOG
AUSTIN         CLOUDY    75  73  93 SE7       29.70F
BROWNSVILLE    CLOUDY    79  77  94 SE16      29.68S FOG
CORPUS CHRISTI CLOUDY    79  75  87 SE22      29.68F FOG
DALLAS FTW     MOCLDY    75  69  81 S10       29.68F
DEL RIO        CLOUDY    73  73 100 SE13      29.65S FOG
EL PASO        CLEAR     60  22  23 W20G30    29.82R
HOUSTON INT    CLOUDY    73  72  96 S12       29.77F
LUBBOCK        CLOUDY    65  61  87 SE14      29.68F
SAN ANGELO     CLOUDY    72  68  87 S8        29.68S FOG
SAN ANTONIO    CLOUDY    75  72  90 SE10      29.71S FOG
WACO           CLOUDY    74  71  91 S8        29.69F
WICHITA FALLS  NOT AVBL
$$
...OTHER LOCATIONS IN NEW MEXICO...

CITY           SKY/WX    TMP DP  RH WIND       PRES   REMARKS
ALAMAGORDO     PTCLDY    57  25  28 W7        29.84R
ALBUQUERQUE    LGT RAIN  43  40  89 NE16      29.85F WCI  35
CANNON AFB     MOCLDY    59  59 100 NW15G24   29.70R
CLOVIS         CLOUDY    61  55  82 S10       29.69F
HOLLOMAN AFB   PTCLDY    57  25  29 W2        29.82R
ROSWELL        PTCLDY    59  46  62 N12       29.74R
RUIDOSO          N/A     45  27  49 SW14      29.86F WCI  38
SANTA FE       LGT RAIN  40  37  89 SW16      29.89R WCI  31
TRUTH OR CONSE CLEAR     48  30  49 NW8       29.82R
TUCUMCARI      LGT RAIN  48  44  86 N20       29.80R
$$

USA.gov is the U.S. government's official web portal to all federal, state and local government web resources and services.